NOAA NWS Hourly Roundups by Site

Regional Weather Roundup for Green Bay, WI

To Select Another Site Choose from List

Select Site:  

926
ASUS43 KGRB 302359
RWRGRB

NORTH-CENTRAL AND NORTHEAST WISCONSIN REGIONAL WEATHER ROUNDUP
NATIONAL WEATHER SERVICE GREEN BAY WI
700 PM CDT SUN JUN 30 2024

WIZ005-009-010>012-018-019-010100-
NORTH CENTRAL WISCONSIN

CITY           SKY/WX    TMP DP  RH WIND       PRES   REMARKS
IRONWOOD       SUNNY     66  38  35 CALM      30.33F
MANITOWISH WTR NOT AVBL
ARBOR VITAE    NOT AVBL
EAGLE RIVER    NOT AVBL
LAND O LAKES   NOT AVBL
RHINELANDER    SUNNY     68  42  38 N5        30.31F
PHILLIPS       NOT AVBL
ANTIGO         NOT AVBL
TOMAHAWK       NOT AVBL
MERRILL        NOT AVBL
$$

WIZ013-073-010100-
NORTHEAST WISCONSIN

CITY           SKY/WX    TMP DP  RH WIND       PRES   REMARKS
IRON MOUNTAIN  SUNNY     70  37  29 NW3       30.28F
MARINETTE      NOT AVBL
$$

WIZ017-030-035>037-045-010100-
CENTRAL WISCONSIN

CITY           SKY/WX    TMP DP  RH WIND       PRES   REMARKS
MEDFORD        NOT AVBL
WAUSAU         SUNNY     71  41  33 N8        30.28F
MOSINEE        SUNNY     70  41  35 N6        30.29F
MARSHFIELD     SUNNY     70  46  42 NE7       30.29F
WISC RAPIDS    SUNNY     72  44  36 N5        30.30F
STEVENS POINT  NOT AVBL
WAUPACA        NOT AVBL
SHAWANO        NOT AVBL
CLINTONVILLE   NOT AVBL
WAUTOMA        SUNNY     71  45  39 NW3       30.29S
$$

WIZ038-039-048-051-010100-
FOX VALLEY

CITY           SKY/WX    TMP DP  RH WIND       PRES   REMARKS
NWS GREEN BAY  SUNNY     72  45  37 CALM      30.28S
APPLETON       MOSUNNY   73  45  35 NW5       30.29S
OSHKOSH        SUNNY     72  46  39 VRB3      30.28F
FOND DU LAC    SUNNY     70  48  45 N3        30.29F
$$

WIZ022-050-052-010100-
EAST CENTRAL WISCONSIN

CITY           SKY/WX    TMP DP  RH WIND       PRES   REMARKS
EPHRAIM        NOT AVBL
WASHINGTON ISL NOT AVBL
STURGEON BAY   SUNNY     66  47  50 E5        30.30S
MANITOWOC      SUNNY     61  51  70 E5        30.30F
SHEBOYGAN      SUNNY     65  51  60 E6        30.29S
$$

LMZ563-521-522-541>543-010100-
LAKESHORE

STATION/POSITION TIME  TEMP    WIND        PRES    VSBY  WAVE
                       AIR SEA DIR/SP/G                  HT/PER
                 (UTC) (F)     (DEG/KT/KT) (MB)    (MI)  (FT/S)
SHEBOYGAN LKSHOR 2300   60      70/  7/  8 1025.9F
KEWAUNEE LKSHORE 2306   61     120/  3/  3 1024.8
NORTHPORT PIER   2300   67     350/ 10/ 14 1026.1
N MID LAKE BUOY  2340   60 59  240/  4/  4 1026.0F
SISTER BAY LKSHO 2327   69      70/  7/ 11   N/A
CHAMBERS ISLAND  2340   65      30/  6/  8   N/A
GREEN BAY WEST   2306   70      70/  4/  5 1024.1
MENOMINEE LKSHOR 2306   65 71   70/  7/  9 1024.3
$$



 

View Past Reports for Green Bay, WI.

Products Courtesy of NOAA-NWS
NWS Information Parsing Script by Ken True at Saratoga Weather - Script by SE Lincoln Weather.